Sturgeon Bay, WI

3:29 AM CST on February 07, 2016 (GMT -0600)
Door County Cherryland

Weather History for KSUE - November, 2012

Change the Weather History Date:

Tuesday, November 20, 2012

  Actual Average (KGRB) Record (KGRB)
Temperature  
Mean Temperature 45 °F 32 °F  
Max Temperature 51 °F 40 °F 62 °F (2003)
Min Temperature 39 °F 25 °F 6 °F (1903)
Degree Days  
Heating Degree Days 20 33  
Month to date heating degree days 562  
Since 1 July heating degree days 1388  
Cooling Degree Days 0 0  
Month to date cooling degree days 0  
Year to date cooling degree days 398  
Moisture  
Dew Point 41 °F    
Average Humidity 89    
Maximum Humidity 100    
Minimum Humidity 71    
Precipitation  
Precipitation 0.00 in 0.06 in 1.53 in (1992)
Month to date precipitation 1.44  
Year to date precipitation 27.32  
Snow  
Snow 0.00 in 0.20 in 3.60 in (1986)
Month to date snowfall 1.8  
Since 1 July snowfall 2.0  
Since 1 September snowfall 2.0  
Snow Depth -    
Sea Level Pressure  
Sea Level Pressure 30.12 in    
Wind  
Wind Speed 4 mph (SSE)    
Max Wind Speed 7 mph    
Max Gust Speed -    
Visibility 3 miles    
Events      
T = Trace of Precipitation, MM = Missing Value Source: NWS Daily Summary

Daily Weather History Graph

Daily Weather History Graph

Search for Another Location

Airport or City:

Trip Planner

Search our weather history database for the weather conditions in past years. The results will help you decide how hot, cold, wet, or windy it might be!

Date:

Astronomy

Nov. 20, 2012 Rise Set
Actual Time 6:54 AM CST 4:16 PM CST
Civil Twilight 6:22 AM CST 4:48 PM CST
Nautical Twilight 5:46 AM CST 5:24 PM CST
Astronomical Twilight 5:11 AM CST 5:59 PM CST
Moon 12:19 PM CST (11/20) 11:58 PM CST (11/20)
Length of Visible Light 10h 26m
Length of Day
9h 22m
First Quarter, 51% of the Moon is Illuminated
Nov 20
First Quarter
Nov 28
Full
Dec 6
Last Quarter
Dec 13
New
Dec 19
First Quarter

Hourly Weather History & Observations

Time (CST) Temp. Windchill Dew Point Humidity Pressure Visibility Wind Dir Wind Speed Gust Speed Precip Events Conditions
1:55 PM 51.8 °F - 42.8 °F 71% 30.08 in 5.0 mi SSW 4.6 mph - N/A   Unknown
2:15 PM 51.8 °F - 42.8 °F 71% 30.08 in 5.0 mi Calm Calm - N/A   Clear
2:35 PM 51.8 °F - 44.6 °F 76% 30.09 in 5.0 mi Calm Calm - N/A   Clear
2:55 PM 51.8 °F - 44.6 °F 76% 30.10 in 5.0 mi ESE 5.8 mph - N/A   Clear
3:15 PM 48.2 °F - 42.8 °F 82% 30.10 in 5.0 mi ESE 4.6 mph - N/A   Clear
3:35 PM 48.2 °F - 42.8 °F 82% 30.11 in 5.0 mi ESE 4.6 mph - N/A   Clear
3:55 PM 46.4 °F 44.3 °F 42.8 °F 87% 30.11 in 5.0 mi SE 4.6 mph - N/A   Clear
4:15 PM 46.4 °F 45.2 °F 42.8 °F 87% 30.12 in 5.0 mi SE 3.5 mph - N/A   Clear
4:35 PM 44.6 °F 43.1 °F 42.8 °F 93% 30.11 in 4.0 mi SSE 3.5 mph - N/A   Clear
4:55 PM 44.6 °F - 41.0 °F 87% 30.11 in 5.0 mi Calm Calm - N/A   Clear
5:15 PM 42.8 °F 41.1 °F 39.2 °F 87% 30.11 in 4.0 mi SSE 3.5 mph - N/A   Clear
5:35 PM 42.8 °F 41.1 °F 41.0 °F 93% 30.12 in 3.0 mi SSE 3.5 mph - N/A   Clear
5:55 PM 42.8 °F 41.1 °F 39.2 °F 87% 30.12 in 3.0 mi SSE 3.5 mph - N/A   Clear
6:15 PM 42.8 °F 41.1 °F 41.0 °F 93% 30.13 in 3.0 mi South 3.5 mph - N/A   Clear
6:35 PM 42.8 °F - 39.2 °F 87% 30.13 in 1.2 mi Calm Calm - N/A   Clear
6:55 PM 42.8 °F 40.1 °F 39.2 °F 87% 30.14 in 2.5 mi SSE 4.6 mph - N/A   Clear
7:15 PM 42.8 °F 39.3 °F 39.2 °F 87% 30.14 in 2.5 mi SSE 5.8 mph - N/A   Clear
7:55 PM 42.8 °F 40.1 °F 41.0 °F 93% 30.14 in 1.8 mi South 4.6 mph - N/A   Clear
8:15 PM 42.8 °F 40.1 °F 41.0 °F 93% 30.14 in 1.2 mi South 4.6 mph - N/A   Clear
8:35 PM 42.8 °F 40.1 °F 39.2 °F 87% 30.14 in 0.8 mi South 4.6 mph - N/A   Unknown
8:55 PM 41.0 °F 39.0 °F 39.2 °F 93% 30.14 in 0.5 mi South 3.5 mph - N/A   Unknown
9:15 PM 41.0 °F 37.1 °F 39.2 °F 93% 30.14 in 0.8 mi South 5.8 mph - N/A   Unknown
9:35 PM 39.2 °F 34.2 °F 37.4 °F 93% 30.13 in 0.2 mi South 6.9 mph - N/A   Mostly Cloudy
9:55 PM 39.2 °F 35.0 °F 39.2 °F 100% 30.13 in 0.5 mi South 5.8 mph - N/A   Overcast
10:15 PM 39.2 °F 34.2 °F 37.4 °F 93% 30.12 in 0.8 mi South 6.9 mph - N/A   Overcast
10:35 PM 39.2 °F 35.0 °F 39.2 °F 100% 30.13 in 1.5 mi South 5.8 mph - N/A   Overcast
10:55 PM 41.0 °F 37.1 °F 39.2 °F 93% 30.13 in 1.8 mi South 5.8 mph - N/A   Scattered Clouds
11:15 PM 41.0 °F 37.1 °F 39.2 °F 93% 30.13 in 0.8 mi SSE 5.8 mph - N/A   Overcast
11:35 PM 39.2 °F 35.0 °F 39.2 °F 100% 30.14 in 0.2 mi SSE 5.8 mph - N/A   Overcast
11:55 PM 39.2 °F 35.0 °F 37.4 °F 93% 30.15 in 0.2 mi South 5.8 mph - N/A   Overcast